Location: Cudham
(51.3000°N, 0.0667°E)
Time: 14:52:54
(UTC+00:00)

USA 229 DEB - Pass Details

Date: 26 April 2026
Orbit: 844 x 1364 km, 63.4° (Epoch: 10 January)

Event Time Altitude Azimuth Distance (km) Brightness Sun altitude
Rises 00:32:52 0° 312° (NW) 4,031 7.2 -24.8°
Reaches altitude 10° 00:35:54 10° 302° (WNW) 3,144 6.4 -24.7°
Maximum altitude 00:42:08 28° 247° (WSW) 2,184 5.0 -24.5°
Enters shadow 00:42:34 28° 241° (WSW) 2,197 5.0 -24.5°
